When you browse on this site, cookies collect data to enhance your experience and personalize the content and advertising you see.
Visit our Privacy Policy to learn more. By continuing to use the site, you agree to this use of cookies and data.
EN

Hourly Weather Smolan

Today, 10 July, Friday

Time Temperature Precipitation Wind Pressure Humidity
00:00 +12°C° 0 mm 1 mps 657 mmHg 81%
01:00 +11°C° 0 mm 1 mps 657 mmHg 82%
02:00 +11°C° 0 mm 1 mps 657 mmHg 82%
03:00 +11°C° 0 mm 1 mps 657 mmHg 84%
04:00 +11°C° 0 mm 1 mps 657 mmHg 85%
05:00 +11°C° 0 mm 1 mps 657 mmHg 87%
06:00 +13°C° 0 mm 2 mps 658 mmHg 79%
07:00 +15°C° 0 mm 2 mps 658 mmHg 71%
08:00 +17°C° 0 mm 2 mps 659 mmHg 63%
09:00 +19°C° 0 mm 2 mps 660 mmHg 58%
10:00 +20°C° 0 mm 2 mps 660 mmHg 53%
11:00 +21°C° 0 mm 2 mps 660 mmHg 49%
12:00 +22°C° 0 mm 3 mps 660 mmHg 48%
13:00 +22°C° 0 mm 3 mps 660 mmHg 47%
14:00 +24°C° 0 mm 3 mps 660 mmHg 46%
15:00 +22°C° 0 mm 3 mps 659 mmHg 49%
16:00 +22°C° 0 mm 3 mps 659 mmHg 51%
17:00 +21°C° 0 mm 3 mps 659 mmHg 54%
18:00 +19°C° 0 mm 2 mps 658 mmHg 63%
19:00 +17°C° 0 mm 2 mps 657 mmHg 72%
20:00 +14°C° 0 mm 1 mps 656 mmHg 82%
21:00 +14°C° 0 mm 1 mps 657 mmHg 81%
22:00 +13°C° 0 mm 1 mps 657 mmHg 81%
23:00 +12°C° 0 mm 2 mps 657 mmHg 81%

Tomorrow, 11 July, Saturday

Time Temperature Precipitation Wind Pressure Humidity
00:00 +12°C° 0 mm 2 mps 656 mmHg 80%
01:00 +11°C° 0 mm 1 mps 656 mmHg 79%
02:00 +11°C° 0 mm 1 mps 656 mmHg 77%
03:00 +11°C° 0 mm 1 mps 656 mmHg 75%
04:00 +11°C° 0 mm 1 mps 656 mmHg 73%
05:00 +11°C° 0 mm 1 mps 656 mmHg 70%
06:00 +13°C° 0 mm 1 mps 656 mmHg 65%
07:00 +15°C° 0 mm 1 mps 657 mmHg 61%
08:00 +19°C° 0 mm 1 mps 658 mmHg 56%
09:00 +20°C° 0 mm 1 mps 658 mmHg 53%
10:00 +20°C° 0 mm 2 mps 658 mmHg 50%
11:00 +23°C° 0 mm 2 mps 659 mmHg 47%
12:00 +23°C° 0 mm 2 mps 658 mmHg 47%
13:00 +24°C° 0 mm 2 mps 658 mmHg 48%
14:00 +24°C° 0 mm 3 mps 658 mmHg 48%
15:00 +24°C° 0 mm 2 mps 657 mmHg 52%
16:00 +23°C° 0 mm 2 mps 657 mmHg 55%
17:00 +23°C° 0 mm 2 mps 657 mmHg 58%
18:00 +20°C° 0 mm 2 mps 656 mmHg 67%
19:00 +18°C° 0 mm 1 mps 655 mmHg 77%
20:00 +15°C° 0 mm 1 mps 655 mmHg 86%
21:00 +15°C° 0 mm 1 mps 655 mmHg 87%
22:00 +14°C° 0 mm 1 mps 655 mmHg 88%
23:00 +14°C° 0 mm 1 mps 655 mmHg 89%

Day after tomorrow, 12 July, Sunday

Time Temperature Precipitation Wind Pressure Humidity
00:00 +13°C° 0 mm 1 mps 654 mmHg 89%
01:00 +13°C° 0 mm 1 mps 654 mmHg 89%
02:00 +13°C° 0 mm 1 mps 654 mmHg 88%
03:00 +13°C° 0 mm 1 mps 654 mmHg 88%
04:00 +12°C° 0 mm 1 mps 654 mmHg 88%
05:00 +12°C° 0 mm 1 mps 654 mmHg 88%
06:00 +15°C° 0 mm 1 mps 654 mmHg 81%
07:00 +18°C° 0 mm 1 mps 655 mmHg 74%
08:00 +20°C° 0 mm 1 mps 656 mmHg 67%
09:00 +21°C° 0 mm 1 mps 657 mmHg 63%
10:00 +23°C° 0 mm 2 mps 657 mmHg 58%
11:00 +24°C° 0 mm 2 mps 657 mmHg 54%
12:00 +24°C° 0.1 mm 2 mps 657 mmHg 55%
13:00 +24°C° 0.1 mm 3 mps 657 mmHg 56%
14:00 +24°C° 0.1 mm 3 mps 657 mmHg 56%
15:00 +24°C° 0.2 mm 3 mps 657 mmHg 58%
16:00 +22°C° 0.2 mm 3 mps 656 mmHg 59%
17:00 +23°C° 0.2 mm 2 mps 656 mmHg 61%
18:00 +20°C° 0.1 mm 2 mps 656 mmHg 69%
19:00 +18°C° 0.1 mm 2 mps 655 mmHg 77%
20:00 +16°C° 0.1 mm 1 mps 655 mmHg 85%
21:00 +16°C° 0 mm 1 mps 655 mmHg 87%
22:00 +15°C° 0 mm 1 mps 655 mmHg 89%
23:00 +14°C° 0 mm 1 mps 655 mmHg 92%

13 July, Monday

Time Temperature Precipitation Wind Pressure Humidity
00:00 +14°C° 0 mm 1 mps 655 mmHg 92%
01:00 +13°C° 0 mm 1 mps 655 mmHg 92%
02:00 +13°C° 0 mm 1 mps 654 mmHg 92%
03:00 +13°C° 0 mm 1 mps 654 mmHg 92%
04:00 +12°C° 0 mm 1 mps 654 mmHg 91%
05:00 +12°C° 0 mm 1 mps 654 mmHg 91%
06:00 +14°C° 0 mm 1 mps 655 mmHg 82%
07:00 +15°C° 0 mm 1 mps 656 mmHg 74%
08:00 +18°C° 0 mm 1 mps 656 mmHg 65%
09:00 +19°C° 0.1 mm 1 mps 657 mmHg 62%
10:00 +18°C° 0.1 mm 2 mps 657 mmHg 60%
11:00 +19°C° 0.1 mm 2 mps 657 mmHg 57%
12:00 +19°C° 0.2 mm 2 mps 657 mmHg 57%
13:00 +19°C° 0.2 mm 3 mps 657 mmHg 56%
14:00 +19°C° 0.2 mm 3 mps 657 mmHg 55%
15:00 +19°C° 0.1 mm 3 mps 656 mmHg 56%
16:00 +19°C° 0.1 mm 2 mps 656 mmHg 57%
17:00 +19°C° 0.1 mm 2 mps 656 mmHg 59%
18:00 +17°C° 0 mm 2 mps 656 mmHg 67%
19:00 +15°C° 0 mm 2 mps 655 mmHg 75%
20:00 +13°C° 0 mm 1 mps 655 mmHg 83%
21:00 +12°C° 0 mm 1 mps 655 mmHg 85%
22:00 +12°C° 0 mm 1 mps 655 mmHg 87%
23:00 +11°C° 0 mm 1 mps 655 mmHg 89%

14 July, Tuesday

Time Temperature Precipitation Wind Pressure Humidity
00:00 +11°C° 0 mm 1 mps 655 mmHg 89%
01:00 +11°C° 0 mm 1 mps 655 mmHg 89%
02:00 +11°C° 0 mm 1 mps 655 mmHg 90%
03:00 +10°C° 0 mm 1 mps 655 mmHg 90%
04:00 +10°C° 0 mm 1 mps 655 mmHg 90%
05:00 +10°C° 0 mm 1 mps 655 mmHg 90%
06:00 +11°C° 0 mm 1 mps 655 mmHg 83%
07:00 +13°C° 0 mm 1 mps 656 mmHg 75%
08:00 +15°C° 0 mm 1 mps 657 mmHg 68%
09:00 +16°C° 0 mm 1 mps 657 mmHg 63%
10:00 +17°C° 0 mm 2 mps 657 mmHg 58%
11:00 +18°C° 0 mm 2 mps 658 mmHg 53%
12:00 +18°C° 0 mm 2 mps 657 mmHg 52%
13:00 +19°C° 0 mm 2 mps 657 mmHg 52%
14:00 +19°C° 0 mm 2 mps 657 mmHg 51%
15:00 +19°C° 0 mm 2 mps 657 mmHg 54%
16:00 +18°C° 0 mm 2 mps 656 mmHg 56%
17:00 +19°C° 0 mm 1 mps 656 mmHg 58%
18:00 +16°C° 0 mm 1 mps 656 mmHg 63%
19:00 +15°C° 0 mm 1 mps 655 mmHg 68%
20:00 +13°C° 0 mm 1 mps 655 mmHg 73%
21:00 +13°C° 0 mm 1 mps 655 mmHg 74%
22:00 +12°C° 0 mm 1 mps 655 mmHg 76%
23:00 +11°C° 0 mm 1 mps 655 mmHg 77%

15 July, Wednesday

Time Temperature Precipitation Wind Pressure Humidity
00:00 +11°C° 0 mm 1 mps 655 mmHg 78%
01:00 +10°C° 0 mm 1 mps 655 mmHg 78%
02:00 +10°C° 0 mm 1 mps 655 mmHg 79%
03:00 +10°C° 0 mm 1 mps 655 mmHg 79%
04:00 +10°C° 0 mm 1 mps 655 mmHg 80%
05:00 +9°C° 0 mm 1 mps 655 mmHg 80%
06:00 +12°C° 0 mm 1 mps 656 mmHg 73%
07:00 +14°C° 0 mm 1 mps 657 mmHg 66%
08:00 +16°C° 0 mm 1 mps 658 mmHg 59%
09:00 +19°C° 0 mm 1 mps 658 mmHg 55%
10:00 +19°C° 0 mm 2 mps 659 mmHg 51%
11:00 +21°C° 0 mm 2 mps 659 mmHg 47%
12:00 +21°C° 0 mm 2 mps 659 mmHg 47%
13:00 +21°C° 0 mm 2 mps 659 mmHg 47%
14:00 +21°C° 0 mm 3 mps 659 mmHg 47%
15:00 +21°C° 0 mm 2 mps 658 mmHg 49%
16:00 +21°C° 0 mm 2 mps 658 mmHg 50%
17:00 +20°C° 0 mm 2 mps 658 mmHg 52%
18:00 +19°C° 0 mm 1 mps 657 mmHg 58%
19:00 +16°C° 0 mm 1 mps 656 mmHg 65%
20:00 +14°C° 0 mm 1 mps 656 mmHg 71%
21:00 +13°C° 0 mm 1 mps 656 mmHg 71%
22:00 +13°C° 0 mm 1 mps 656 mmHg 70%
23:00 +12°C° 0 mm 1 mps 656 mmHg 69%
Show more